| time (UTC) | temp F | wind direction | speed MPH | gust MPH | rain 1hr in | rain 24hr in | rain mn in | humidity % | barometer mb |
| 20260901221632 | 84 | 331 | 0.0 | 2.0 | 0.01 | 0.01 | 0.01 | 79 | 1013.3 |
| 20260901220107 | 84 | 307 | 1.0 | 3.0 | 0.01 | 0.01 | 0.01 | 79 | 1013.5 |
| 20260901214612 | 83 | 321 | 1.0 | 4.0 | 0.01 | 0.01 | 0.01 | 79 | 1013.8 |
| 20260901213106 | 83 | 279 | 0.0 | 2.0 | 0.00 | 0.00 | 0.00 | 81 | 1014.1 |
| 20260901211603 | 83 | 309 | 2.0 | 3.0 | 0.00 | 0.00 | 0.00 | 79 | 1014.1 |
| 20260901204603 | 84 | 290 | 0.0 | 3.0 | 0.00 | 0.00 | 0.00 | 77 | 1014.0 |
| 20260901203103 | 83 | 334 | 2.0 | 3.0 | 0.00 | 0.00 | 0.00 | 78 | 1014.0 |
| 20260901201603 | 83 | 319 | 1.0 | 5.0 | 0.00 | 0.00 | 0.00 | 77 | 1014.0 |
| 20260901200103 | 83 | 321 | 2.0 | 7.0 | 0.00 | 0.00 | 0.00 | 75 | 1014.3 |
| 20260901194600 | 83 | 360 | 2.0 | 6.0 | 0.00 | 1.01 | 0.00 | 74 | 1014.6 |
| 20260901193109 | 83 | 360 | 2.0 | 4.0 | 0.00 | 1.01 | 0.00 | 75 | 1015.0 |
| 20260901191606 | 83 | 344 | 3.0 | 8.0 | 0.00 | 1.01 | 0.00 | 74 | 1015.1 |
| 20260901184609 | 84 | 352 | 2.0 | 5.0 | 0.00 | 1.01 | 0.00 | 75 | 1015.4 |
| 20260901183057 | 84 | 5 | 2.0 | 5.0 | 0.00 | 1.01 | 0.00 | 77 | 1015.6 |
| 20260901181557 | 84 | 360 | 3.0 | 8.0 | 0.00 | 1.01 | 0.00 | 78 | 1015.6 |
| 20260901180106 | 84 | 26 | 4.0 | 9.0 | 0.00 | 1.01 | 0.00 | 78 | 1015.5 |
| 20260901174604 | 84 | 9 | 4.0 | 7.0 | 0.00 | 1.12 | 0.00 | 77 | 1015.6 |
| 20260901173059 | 84 | 21 | 3.0 | 9.0 | 0.00 | 1.12 | 0.00 | 77 | 1015.8 |
| 20260901171601 | 85 | 28 | 4.0 | 7.0 | 0.00 | 1.12 | 0.00 | 76 | 1016.5 |
| 20260901170104 | 85 | 18 | 3.0 | 6.0 | 0.00 | 1.12 | 0.00 | 72 | 1016.7 |
| 20260901164604 | 85 | 36 | 4.0 | 9.0 | 0.00 | 1.12 | 0.00 | 73 | 1016.7 |
| 20260901163116 | 85 | 67 | 4.0 | 9.0 | 0.00 | 1.12 | 0.00 | 75 | 1016.8 |
| 20260901161556 | 85 | 38 | 2.0 | 6.0 | 0.00 | 1.12 | 0.00 | 76 | 1016.8 |
| 20260901160106 | 85 | 24 | 3.0 | 8.0 | 0.00 | 1.12 | 0.00 | 77 | 1016.7 |
| 20260901154604 | 84 | 346 | 2.0 | 5.0 | 0.00 | 1.12 | 0.00 | 77 | 1016.5 |
| 20260901153102 | 84 | 19 | 3.0 | 5.0 | 0.00 | 1.12 | 0.00 | 79 | 1016.5 |
| 20260901151604 | 83 | 352 | 2.0 | 4.0 | 0.00 | 1.12 | 0.00 | 80 | 1016.4 |
| 20260901150116 | 83 | 352 | 2.0 | 4.0 | 0.00 | 1.12 | 0.00 | 82 | 1016.4 |
| 20260901144604 | 82 | 328 | 1.0 | 5.0 | 0.00 | 1.12 | 0.00 | 84 | 1016.3 |
| 20260901143109 | 82 | 46 | 3.0 | 6.0 | 0.00 | 1.12 | 0.00 | 84 | 1016.3 |
| 20260901141605 | 81 | 338 | 1.0 | 3.0 | 0.00 | 1.12 | 0.00 | 85 | 1016.4 |
| 20260901140115 | 81 | 308 | 2.0 | 4.0 | 0.00 | 1.12 | 0.00 | 86 | 1016.3 |
| 20260901134628 | 81 | 28 | 2.0 | 7.0 | 0.00 | 1.12 | 0.00 | 87 | 1016.2 |
| 20260901133055 | 81 | 16 | 2.0 | 4.0 | 0.00 | 1.12 | 0.00 | 89 | 1016.4 |
| 20260901131602 | 80 | 328 | 1.0 | 3.0 | 0.00 | 1.12 | 0.00 | 90 | 1016.2 |
| 20260901130112 | 79 | 14 | 1.0 | 3.0 | 0.00 | 1.12 | 0.00 | 91 | 1016.1 |
| 20260901124603 | 79 | 44 | 2.0 | 4.0 | 0.00 | 1.12 | 0.00 | 91 | 1015.9 |
| 20260901123105 | 79 | 0 | 0.0 | 0.0 | 0.00 | 1.12 | 0.00 | 92 | 1015.6 |
| 20260901121605 | 78 | 0 | 0.0 | 0.0 | 0.00 | 1.12 | 0.00 | 92 | 1015.4 |
| 20260901120106 | 78 | 0 | 0.0 | 0.0 | 0.00 | 1.12 | 0.00 | 92 | 1015.3 |
| 20260901114620 | 78 | 0 | 0.0 | 0.0 | 0.00 | 1.12 | 0.00 | 91 | 1015.3 |
| 20260901113142 | 78 | 0 | 0.0 | 0.0 | 0.00 | 1.12 | 0.00 | 91 | 1015.2 |
| 20260901111606 | 79 | 0 | 0.0 | 0.0 | 0.00 | 1.12 | 0.00 | 91 | 1015.2 |
| 20260901110109 | 78 | 0 | 0.0 | 0.0 | 0.00 | 1.12 | 0.00 | 91 | 1015.1 |
| 20260901104606 | 78 | 0 | 0.0 | 0.0 | 0.00 | 1.12 | 0.00 | 91 | 1015.0 |
| 20260901103105 | 78 | 0 | 0.0 | 0.0 | 0.00 | 1.12 | 0.00 | 91 | 1015.1 |
| 20260901101612 | 78 | 0 | 0.0 | 0.0 | 0.00 | 1.12 | 0.00 | 90 | 1015.2 |
| 20260901100107 | 79 | 0 | 0.0 | 0.0 | 0.00 | 1.12 | 0.00 | 90 | 1015.0 |
| 20260901094603 | 79 | 0 | 0.0 | 0.0 | 0.00 | 1.12 | 0.00 | 89 | 1015.1 |
| 20260901093100 | 79 | 0 | 0.0 | 0.0 | 0.00 | 1.12 | 0.00 | 89 | 1015.2 |
| 20260901091604 | 79 | 0 | 0.0 | 1.0 | 0.00 | 1.12 | 0.00 | 89 | 1015.4 |
| 20260901090104 | 79 | 0 | 0.0 | 2.0 | 0.00 | 1.12 | 0.00 | 90 | 1015.5 |
| 20260901084606 | 79 | 324 | 1.0 | 2.0 | 0.00 | 1.12 | 0.00 | 91 | 1015.5 |
| 20260901083057 | 79 | 0 | 0.0 | 2.0 | 0.00 | 1.12 | 0.00 | 92 | 1015.3 |
| 20260901081559 | 78 | 0 | 0.0 | 2.0 | 0.00 | 1.12 | 0.00 | 92 | 1015.4 |
| 20260901080105 | 78 | 336 | 0.0 | 2.0 | 0.00 | 1.12 | 0.00 | 93 | 1015.3 |
| 20260901074606 | 78 | 0 | 0.0 | 0.0 | 0.00 | 1.12 | 0.00 | 93 | 1015.3 |
| 20260901073101 | 78 | 0 | 0.0 | 0.0 | 0.00 | 1.12 | 0.00 | 93 | 1015.4 |
| 20260901071606 | 78 | 0 | 0.0 | 2.0 | 0.00 | 1.12 | 0.00 | 92 | 1015.6 |
| 20260901070109 | 78 | 0 | 0.0 | 2.0 | 0.00 | 1.12 | 0.00 | 92 | 1015.8 |
| 20260901064604 | 79 | 0 | 0.0 | 0.0 | 0.00 | 1.12 | 0.00 | 92 | 1015.6 |
| 20260901063056 | 79 | 0 | 0.0 | 0.0 | 0.00 | 1.12 | 0.00 | 92 | 1015.6 |
| 20260901061605 | 79 | 0 | 0.0 | 0.0 | 0.00 | 1.12 | 0.00 | 92 | 1015.9 |
| 20260901060112 | 79 | 0 | 0.0 | 0.0 | 0.00 | 1.12 | 0.00 | 92 | 1015.9 |
| 20260901054601 | 79 | 0 | 0.0 | 0.0 | 0.00 | 1.12 | 0.00 | 91 | 1015.9 |
| 20260901053111 | 79 | 0 | 0.0 | 0.0 | 0.00 | 1.12 | 0.00 | 92 | 1015.8 |
| 20260901051608 | 79 | 0 | 0.0 | 0.0 | 0.00 | 1.12 | 0.00 | 91 | 1015.8 |
| 20260901050107 | 79 | 0 | 0.0 | 0.0 | 0.00 | 1.12 | 0.00 | 91 | 1015.6 |
| 20260901044631 | 79 | 0 | 0.0 | 0.0 | 0.00 | 1.12 | 1.12 | 91 | 1015.5 |
| 20260901043056 | 79 | 0 | 0.0 | 0.0 | 0.00 | 1.12 | 1.12 | 90 | 1015.6 |
| 20260901041602 | 79 | 0 | 0.0 | 0.0 | 0.00 | 1.12 | 1.12 | 90 | 1015.6 |
| 20260901040105 | 80 | 0 | 0.0 | 0.0 | 0.00 | 1.12 | 1.12 | 90 | 1015.6 |
| 20260901034606 | 80 | 0 | 0.0 | 0.0 | 0.00 | 1.12 | 1.12 | 89 | 1015.6 |
| 20260901033107 | 80 | 0 | 0.0 | 0.0 | 0.00 | 1.12 | 1.12 | 89 | 1015.7 |
| 20260901031559 | 81 | 0 | 0.0 | 0.0 | 0.00 | 1.12 | 1.12 | 87 | 1015.6 |
| 20260901030105 | 81 | 0 | 0.0 | 0.0 | 0.00 | 1.12 | 1.12 | 85 | 1015.5 |
| 20260901024604 | 83 | 0 | 0.0 | 0.0 | 0.00 | 1.12 | 1.12 | 82 | 1015.2 |
| 20260901023054 | 83 | 0 | 0.0 | 0.0 | 0.00 | 1.12 | 1.12 | 81 | 1015.0 |
| 20260901021636 | 84 | 0 | 0.0 | 0.0 | 0.00 | 1.12 | 1.12 | 81 | 1014.8 |
| 20260901020115 | 84 | 0 | 0.0 | 2.0 | 0.00 | 1.12 | 1.12 | 80 | 1014.6 |
| 20260901014559 | 84 | 0 | 0.0 | 2.0 | 0.00 | 1.12 | 1.12 | 79 | 1014.5 |
| 20260901013109 | 84 | 138 | 0.0 | 2.0 | 0.00 | 1.12 | 1.12 | 78 | 1014.4 |
| 20260901011603 | 85 | 0 | 0.0 | 2.0 | 0.00 | 1.12 | 1.12 | 76 | 1014.5 |
| 20260901010058 | 85 | 0 | 0.0 | 2.0 | 0.00 | 1.12 | 1.12 | 75 | 1014.5 |
| 20260901004608 | 86 | 0 | 0.0 | 2.0 | 0.00 | 1.12 | 1.12 | 74 | 1014.6 |
| 20260901003123 | 86 | 169 | 0.0 | 2.0 | 0.00 | 1.12 | 1.12 | 74 | 1014.5 |
| 20260901001613 | 86 | 197 | 1.0 | 3.0 | 0.00 | 1.12 | 1.12 | 74 | 1014.6 |
| 20260901000113 | 87 | 196 | 0.0 | 2.0 | 0.00 | 1.12 | 1.12 | 73 | 1014.6 |
| 20260831234606 | 87 | 144 | 0.0 | 2.0 | 0.00 | 1.12 | 1.12 | 72 | 1014.6 |
| 20260831233105 | 87 | 352 | 0.0 | 2.0 | 0.00 | 1.12 | 1.12 | 72 | 1014.7 |
| 20260831231608 | 87 | 273 | 0.0 | 2.0 | 0.00 | 1.12 | 1.12 | 72 | 1014.8 |
| 20260831230059 | 87 | 0 | 0.0 | 2.0 | 0.00 | 1.12 | 1.12 | 73 | 1014.8 |
| 20260831224556 | 86 | 94 | 1.0 | 3.0 | 0.00 | 1.12 | 1.12 | 74 | 1014.8 |
| 20260831223104 | 87 | 223 | 0.0 | 2.0 | 0.00 | 1.12 | 1.12 | 75 | 1015.0 |